Powrót do katalogu

SCOUT G-1 R/B

AktywnyPO
NORAD 15938·ROCKET BODY·🇺🇸 United States

Wystrzelony Aug 3, 1985 z Vandenberg Space Force Base

Loading…

Następne Przeloty (najbliższe 24 godziny)

TLE

ŚwieżeSource: Space-Track

Epoka: Sep 14, 2026, 20:26 UTC

1 15938U 85066C   26257.85205175  .00000033  00000-0  42970-4 0  9998
2 15938  90.1587  99.1192 0170732  54.4476 307.2449 13.35467276   620

Śledź SCOUT G-1 R/B w czasie rzeczywistym z AllMySat

Download on the App Store